Location: La Brionne
(46.1728°N, 1.7849°E)
Time: 11:11:40
(UTC+00:00)

Max Valier Satellite - Pass Details

Date: 03 April 2023
Orbit: 443 x 457 km, 97.2° (Epoch: 10 June)

Event Time Altitude Azimuth Distance (km) Brightness Sun altitude
Rises 19:53:10 0° 192° (SSW) 2,428 ? -15.6°
Reaches altitude 10° 19:55:23 10° 206° (SSW) 1,566 ? -15.9°
Maximum altitude 19:58:16 26° 265° (W) 920 ? -16.4°
Drops below altitude 10° 20:01:11 10° 324° (NW) 1,589 ? -16.8°
Sets 20:03:28 0° 337° (NNW) 2,473 ? -17.2°
